Regional Weather Roundup
Issued by NWS

Home | Current Version | Previous Version | Graphics & Text | Print | Product List | Glossary On
Versions: 1 2 3 4 5 6 7 8 9 10 11 12 13 14 15 16 17 18 19 20 21 22 23 24 25 26 27 28 29 30 31 32 33 34 35 36 37 38 39 40 41 42 43 44 45 46 47 48 49 50
000
ASUS43 KOAX 021002
RWRNE

WEATHER ROUNDUP FOR NEBRASKA
NATIONAL WEATHER SERVICE OMAHA NE
500 AM CDT SUN AUG 02 2015

NOTES: SATELLITE DATA IS BEING USED TO AUGMENT CLOUD COVER ABOVE
       12000 FEET.
       "FAIR" INDICATES FEW OR NO CLOUDS BELOW 12,000 FEET WITH NO
       SIGNIFICANT WEATHER AND/OR OBSTRUCTIONS TO VISIBILITY.

  * THESE STATIONS DO NOT REPORT WEATHER SUCH AS RAIN...SNOW OR FOG.

NEZ001>004-019>022-054>056-021100-
NEBRASKA PANHANDLE

CITY           SKY/WX    TMP DP  RH WIND       PRES   REMARKS
SCOTTSBLUFF    CLEAR     62  56  80 N3        29.99F
ALLIANCE       CLEAR     58  53  84 CALM      29.98F
CHADRON        CLEAR     64  54  69 N3        29.93S
KIMBALL        PTCLDY    59  54  84 CALM      30.04F
SIDNEY         PTCLDY    59  54  83 SW8       30.02F
$$

NEZ057>060-069>072-079>082-021100-
SOUTHWEST NEBRASKA

CITY           SKY/WX    TMP DP  RH WIND       PRES   REMARKS
NORTH PLATTE   MOCLDY    59  56  89 CALM      29.95S
IMPERIAL       PTCLDY    65  57  75 CALM      29.96F
LEXINGTON      MOCLDY    65  62  90 CALM      29.92F
MCCOOK         PTCLDY    68  61  78 CALM      29.93F
$$

NEZ005>010-023>029-035>040-094-021100-
NORTH CENTRAL NEBRASKA

CITY           SKY/WX    TMP DP  RH WIND       PRES   REMARKS
AINSWORTH      CLEAR     65  59  81 SW8       29.87F
BROKEN BOW     CLEAR     59  57  93 CALM      29.91F
O`NEILL        CLEAR     65  62  90 SW8       29.83F
ORD            CLEAR     61  60  97 CALM      29.86F
$$

NEZ041-046>049-061>064-073>077-083>087-021100-
SOUTH CENTRAL NEBRASKA

CITY           SKY/WX    TMP DP  RH WIND       PRES   REMARKS
GRAND ISLAND   PTCLDY    67  64  90 SW6       29.89F
AURORA         MOCLDY    66  66 100 W7        29.89F
HASTINGS       MOCLDY    69  64  84 SW5       29.90F
HEBRON         PTCLDY    71  66  85 S7        29.90S
HOLDREGE       MOCLDY    67  63  84 SW6       29.92F
KEARNEY *      MOCLDY    70  61  73 SW3       29.91F
$$

NEZ011>018-030>034-042>045-021100-
NORTHEAST NEBRASKA

CITY           SKY/WX    TMP DP  RH WIND       PRES   REMARKS
NORFOLK        CLEAR     64  62  93 SW3       29.81F
ALBION         CLEAR     65  62  90 CALM      29.85F
BLAIR          CLOUDY    72  67  85 S15G24    29.83F
COLUMBUS *     PTCLDY    77  63  61 SW13G18   29.82F
FREMONT        MOCLDY    73  65  78 E5        29.84S
TEKAMAH        MOCLDY    72  67  84 S9        29.81F
$$

NEZ050>053-065>068-078-088>093-021100-
SOUTHEAST NEBRASKA

CITY           SKY/WX    TMP DP  RH WIND       PRES   REMARKS
LINCOLN        MOCLDY    73  68  84 SW9       29.87F
OMAHA EPPLEY   CLOUDY    74  69  85 E3        29.86R
BEATRICE       PTCLDY    73  68  86 S8        29.88F
FALLS CITY     CLEAR     72  68  87 S10       29.87F
NEBRASKA CITY  PTCLDY    71  70  96 SW9       29.87S
$$

NEZ044-045-051>053-067-021100-
OMAHA AREA

CITY           SKY/WX    TMP DP  RH WIND       PRES   REMARKS
OMAHA EPPLEY   CLOUDY    74  69  85 E3        29.86R
BLAIR          CLOUDY    72  67  85 S15G24    29.83F
FREMONT        MOCLDY    73  65  78 E5        29.84S
WAHOO          FAIR      72  67  86 SE3       29.84F
$$



USA.gov is the U.S. government's official web portal to all federal, state and local government web resources and services.